Carbondale, IL

7:26 PM CST on December 07, 2019 (GMT -0600)
Southern Illinois

Weather History for KMDH - October, 2019

Change the Weather History Date:

Tuesday, October 8, 2019

  Actual Average Record
Temperature  
Mean Temperature 58 °F -  
Max Temperature 75 °F 69 °F 91 °F (2007)
Min Temperature 42 °F 44 °F 27 °F (1952)
Degree Days  
Heating Degree Days 6    
Growing Degree Days 8 (Base 50)    
Moisture  
Dew Point 43 °F    
Average Humidity 83    
Maximum Humidity 100    
Minimum Humidity 29    
Precipitation  
Precipitation 0.00 in - - ()
Sea Level Pressure  
Sea Level Pressure 30.19 in    
Wind  
Wind Speed 1 mph (East)    
Max Wind Speed 10 mph    
Max Gust Speed 20 mph    
Visibility 4 miles    
Events Fog    
Averages and records for this station are not official NWS values.
T = Trace of Precipitation, MM = Missing Value Source: NWS Daily Summary

Daily Weather History Graph

Daily Weather History Graph

Search for Another Location

Airport or City:

Astronomy

Oct. 08, 2019 Rise Set
Actual Time 6:58 AM CDT 6:29 PM CDT
Civil Twilight 6:32 AM CDT 6:56 PM CDT
Nautical Twilight 6:02 AM CDT 7:26 PM CDT
Astronomical Twilight 5:31 AM CDT 7:56 PM CDT
Moon 4:22 PM CDT 1:55 AM CDT
Length of Visible Light 12h 23m
Length of Day
11h 31m
Waxing Gibbous, 78% of the Moon is Illuminated
Oct 8
Waxing Gibbous
Oct 13
Full
Oct 21
Last Quarter
Oct 27
New
Nov 4
First Quarter

Hourly Weather History & Observations

Time (CDT) Temp. Windchill Dew Point Humidity Pressure Visibility Wind Dir Wind Speed Gust Speed Precip Events Conditions
12:52 AM 48.0 °F - 46.9 °F 96% 30.20 in 10.0 mi NNW 5.8 mph - N/A   Clear
1:52 AM 45.0 °F - 43.0 °F 93% 30.19 in 10.0 mi Calm Calm - N/A   Clear
2:29 AM 44.1 °F - 42.1 °F 93% 30.20 in 2.5 mi Calm Calm - N/A   Partly Cloudy
2:32 AM 44.1 °F - 42.1 °F 93% 30.20 in 1.0 mi Calm Calm - N/A   Mist
2:42 AM 45.0 °F - 44.1 °F 97% 30.19 in 2.0 mi Calm Calm - N/A   Partly Cloudy
2:47 AM 44.6 °F - 42.8 °F 93% 30.19 in 1.0 mi Calm Calm - N/A   Mist
2:52 AM 44.1 °F - 43.0 °F 96% 30.19 in 0.8 mi Calm Calm - N/A   Mist
3:19 AM 44.1 °F - 43.0 °F 96% 30.19 in 0.5 mi Calm Calm - N/A Fog Fog
3:29 AM 44.1 °F - 42.1 °F 93% 30.19 in 0.2 mi Calm Calm - N/A Fog Fog
3:36 AM 44.1 °F - 42.1 °F 93% 30.19 in 0.2 mi Calm Calm - N/A Fog Fog
3:45 AM 44.1 °F - 43.0 °F 96% 30.19 in 0.5 mi Calm Calm - N/A Fog Fog
3:52 AM 43.0 °F - 42.1 °F 97% 30.19 in 2.5 mi Calm Calm - N/A   Scattered Clouds
3:59 AM 44.1 °F - 42.1 °F 93% 30.19 in 9.0 mi Calm Calm - N/A   Scattered Clouds
4:16 AM 43.0 °F - 42.1 °F 97% 30.20 in 1.8 mi Calm Calm - N/A   Clear
4:19 AM 44.1 °F - 42.1 °F 93% 30.20 in 1.0 mi Calm Calm - N/A   Mist
4:33 AM 43.0 °F - 41.0 °F 93% 30.19 in 2.0 mi Calm Calm - N/A   Partly Cloudy
4:40 AM 43.0 °F - 41.0 °F 93% 30.19 in 10.0 mi Calm Calm - N/A   Partly Cloudy
4:47 AM 42.8 °F - 41.0 °F 93% 30.19 in 1.8 mi Calm Calm - N/A   Scattered Clouds
4:52 AM 43.0 °F - 41.0 °F 93% 30.19 in 1.0 mi Calm Calm - N/A   Mist
5:00 AM 43.0 °F - 42.1 °F 97% 30.19 in 0.5 mi Calm Calm - N/A Fog Fog
5:25 AM 43.0 °F - 41.0 °F 93% 30.20 in 2.0 mi Calm Calm - N/A   Overcast
5:35 AM 43.0 °F - 41.0 °F 93% 30.20 in 1.0 mi Calm Calm - N/A   Mist
5:42 AM 43.0 °F - 41.0 °F 93% 30.20 in 0.5 mi Calm Calm - N/A Fog Fog
5:44 AM 43.0 °F - 41.0 °F 93% 30.20 in 0.2 mi Calm Calm - N/A Fog Fog
5:52 AM 42.1 °F - 41.0 °F 96% 30.20 in 0.2 mi Calm Calm - N/A Fog Fog
6:00 AM 43.0 °F - 41.0 °F 93% 30.20 in 1.2 mi Calm Calm - N/A   Overcast
6:11 AM 42.1 °F - 41.0 °F 96% 30.20 in 1.8 mi Calm Calm - N/A   Overcast
6:15 AM 42.1 °F - 41.0 °F 96% 30.21 in 0.8 mi Calm Calm - N/A   Mist
6:28 AM 43.0 °F - 42.1 °F 97% 30.21 in 0.5 mi Calm Calm - N/A Fog Fog
6:40 AM 43.0 °F - 42.1 °F 97% 30.21 in 0.2 mi Calm Calm - N/A Fog Fog
6:52 AM 44.1 °F - 42.1 °F 93% 30.21 in 0.5 mi Calm Calm - N/A Fog Fog
6:55 AM 42.1 °F - 41.0 °F 96% 30.21 in 1.0 mi Calm Calm - N/A   Mist
7:09 AM 42.1 °F - 39.9 °F 92% 30.21 in 0.8 mi Calm Calm - N/A   Mist
7:34 AM 43.0 °F 41.3 °F 42.1 °F 97% 30.21 in 2.0 mi ESE 3.5 mph - N/A   Clear
7:37 AM 44.1 °F - 43.0 °F 96% 30.21 in 5.0 mi Calm Calm - N/A   Overcast
7:47 AM 44.6 °F 41.4 °F 44.6 °F 100% 30.22 in 0.2 mi ESE 5.8 mph - N/A Fog Fog
7:52 AM 46.0 °F - 45.0 °F 96% 30.22 in 0.2 mi Calm Calm - N/A Fog Fog
7:59 AM 46.0 °F - 45.0 °F 96% 30.22 in 0.2 mi Calm Calm - N/A Fog Fog
8:21 AM 48.0 °F - 46.0 °F 93% 30.23 in 0.8 mi Calm Calm - N/A   Mist
8:25 AM 48.9 °F - 46.9 °F 93% 30.22 in 2.0 mi Calm Calm - N/A   Overcast
8:33 AM 50.0 °F - 48.0 °F 93% 30.23 in 6.0 mi Calm Calm - N/A   Mostly Cloudy
8:43 AM 51.1 °F - 48.9 °F 92% 30.23 in 10.0 mi Calm Calm - N/A   Clear
8:52 AM 53.1 °F - 50.0 °F 89% 30.23 in 10.0 mi Calm Calm - N/A   Clear
9:52 AM 62.1 °F - 52.0 °F 70% 30.23 in 10.0 mi Calm Calm - N/A   Clear
10:52 AM 69.1 °F - 46.0 °F 44% 30.22 in 10.0 mi ESE 5.8 mph - N/A   Clear
11:52 AM 72.0 °F - 42.1 °F 34% 30.21 in 10.0 mi East 10.4 mph - N/A   Clear
12:52 PM 73.0 °F - 39.9 °F 30% 30.18 in 10.0 mi ESE 8.1 mph 19.6 mph N/A   Clear
1:00 PM 73.0 °F - 39.9 °F 30% 30.17 in 10.0 mi ESE 5.8 mph - N/A   Clear
1:52 PM 75.0 °F - 41.0 °F 29% 30.15 in 10.0 mi East 4.6 mph - N/A   Clear
2:52 PM 73.9 °F - 41.0 °F 30% 30.13 in 10.0 mi East 10.4 mph - N/A   Clear
3:52 PM 75.0 °F - 41.0 °F 29% 30.11 in 10.0 mi East 4.6 mph - N/A   Clear
4:52 PM 73.9 °F - 41.0 °F 30% 30.10 in 10.0 mi ESE 4.6 mph - N/A   Clear
5:52 PM 70.0 °F - 43.0 °F 38% 30.10 in 10.0 mi East 4.6 mph - N/A   Clear
6:52 PM 60.1 °F - 46.9 °F 62% 30.10 in 10.0 mi Calm Calm - N/A   Clear
7:52 PM 54.0 °F - 48.9 °F 83% 30.11 in 10.0 mi Calm Calm - N/A   Clear
8:52 PM 51.1 °F - 46.9 °F 86% 30.11 in 10.0 mi Calm Calm - N/A   Clear
9:52 PM 50.0 °F - 46.9 °F 89% 30.11 in 10.0 mi Calm Calm - N/A   Clear
10:52 PM 48.0 °F - 45.0 °F 89% 30.11 in 10.0 mi Calm Calm - N/A   Clear
11:52 PM 46.9 °F - 44.1 °F 90% 30.10 in 10.0 mi Calm Calm - N/A   Clear